Weather in Gain

Ukraine / Rovno District     50°36′06″N   26°59′51″E
temp.,
°C
wind,
m/s
gust,
m/s
humid.,
%
clouds,
%
prec.,
mm/h
press.,
hPa
HPBL,
m
19 september, sun
sun1900:00+11w3786100 0.0 1008697
03:00+10w3786100 0.1 1007586
06:00+9w4985100 0.1 1007682
09:00+8wsw5786100 0.3 1007650
12:00+7wsw5890100 0.4 1008600
15:00+7w5788100 0.6 10091031
18:00+7w5789100 0.2 10091040
21:00+6w5792100 0.7 1009997
20 september, mon
mon2000:00+6w5894100 0.3 1009714
03:00+7wnw4897100 0.4 1009485
06:00+7wnw6997100 0.0 1010577
09:00+6wnw6994100 0.0 1011612
12:00+5wnw6991100 0.1 1013660
15:00+6wnw6987100 0.1 1013874
18:00+5wnw6988100 0.1 1014981
21:00+4wnw61094100 0.1 1015867
21 september, tue
tue2100:00+3wnw61196100 0.4 1016645
03:00+4wnw61197100 0.8 1016724
06:00+4wnw71296100 0.2 1017839
09:00+5wnw71192100 0.3 1018852
12:00+5wnw71089100 0.1 1019905
15:00+6wnw61089100 0.1 1020900
18:00+5wnw61092100 0.0 1021939
21:00+5wnw5991100 0.1 1021970
22 september, wed
wed2200:00+5wnw6991100 0.1 1021899
03:00+5nw5889100 0.1 1021993
06:00+5nw61093100 0.2 1020882
09:00+6nw6108399 0.3 1020827
12:00+9nw6965100 0.1 10191306
15:00+11nw794983 0.1 10171853
18:00+9nnw6967100 0.1 10181166
21:00+6nnw4785100 0.3 1018933
23 september, thu
thu2300:00+6n3688100 0.3 1017597
03:00+5nnw2589100 0.4 1017449
06:00+5nw3590100 0.0 1017659
09:00+6nw3586100 0.1 1016500
12:00+8wnw336992 0.1 1016940
15:00+9w3571100 0.1 1015903
18:00+11sw2362100 0.0 1013197
21:00+9sw4787100 0.0 1013365